| time (UTC) | temp C | wind direction | speed KPH | gust KPH | rain 1hr cm | rain 24hr cm | rain mn cm | humidity % | barometer mb |
| 20260505183729 | 17 | 334 | 9.7 | 24.1 | 0.00 | 0.00 | 0.00 | 43 | 1010.8 |
| 20260505183230 | 17 | 0 | 9.7 | 19.3 | 0.00 | 0.00 | 0.00 | 43 | 1010.9 |
| 20260505182731 | 17 | 3 | 8.0 | 17.7 | 0.00 | 0.00 | 0.00 | 44 | 1010.6 |
| 20260505182230 | 17 | 25 | 8.0 | 24.1 | 0.00 | 0.00 | 0.00 | 44 | 1010.9 |
| 20260505182112 | 16 | 354 | 9.7 | 24.1 | 0.00 | 0.00 | 0.00 | 44 | 1010.9 |
| 20260505181229 | 16 | 8 | 8.0 | 17.7 | 0.00 | 0.00 | 0.00 | 44 | 1011.0 |
| 20260505180729 | 16 | 34 | 8.0 | 20.9 | 0.00 | 0.00 | 0.00 | 43 | 1011.4 |
| 20260505180228 | 16 | 14 | 6.4 | 20.9 | 0.00 | 0.00 | 0.00 | 45 | 1011.4 |
| 20260505175729 | 16 | 6 | 3.2 | 14.5 | 0.00 | 0.00 | 0.00 | 47 | 1011.3 |
| 20260505175229 | 15 | 28 | 3.2 | 19.3 | 0.00 | 0.00 | 0.00 | 46 | 1011.3 |
| 20260505174731 | 15 | 0 | 4.8 | 19.3 | 0.00 | 0.00 | 0.00 | 47 | 1011.3 |
| 20260505174228 | 16 | 25 | 6.4 | 17.7 | 0.00 | 0.00 | 0.00 | 47 | 1011.1 |
| 20260505173729 | 16 | 21 | 6.4 | 22.5 | 0.00 | 0.00 | 0.00 | 45 | 1011.1 |
| 20260505173230 | 16 | 0 | 9.7 | 25.7 | 0.00 | 0.00 | 0.00 | 46 | 1011.1 |
| 20260505172729 | 16 | 13 | 9.7 | 25.7 | 0.00 | 0.00 | 0.00 | 45 | 1011.3 |
| 20260505172229 | 16 | 354 | 9.7 | 25.7 | 0.00 | 0.00 | 0.00 | 48 | 1011.0 |
| 20260505171729 | 15 | 1 | 6.4 | 25.7 | 0.00 | 0.00 | 0.00 | 47 | 1011.0 |
| 20260505171230 | 15 | 23 | 11.3 | 22.5 | 0.00 | 0.00 | 0.00 | 47 | 1011.0 |
| 20260505170730 | 15 | 18 | 9.7 | 22.5 | 0.00 | 0.00 | 0.00 | 48 | 1010.9 |
| 20260505170230 | 15 | 13 | 9.7 | 22.5 | 0.00 | 0.00 | 0.00 | 49 | 1011.0 |
| 20260505165731 | 15 | 0 | 6.4 | 17.7 | 0.00 | 0.00 | 0.00 | 50 | 1011.1 |
| 20260505165230 | 15 | 52 | 6.4 | 20.9 | 0.00 | 0.00 | 0.00 | 51 | 1010.9 |
| 20260505164731 | 14 | 34 | 4.8 | 20.9 | 0.00 | 0.00 | 0.00 | 50 | 1010.9 |
| 20260505164231 | 14 | 21 | 11.3 | 19.3 | 0.00 | 0.00 | 0.00 | 50 | 1010.9 |
| 20260505163729 | 15 | 37 | 8.0 | 20.9 | 0.00 | 0.00 | 0.00 | 49 | 1011.0 |
| 20260505163229 | 15 | 7 | 9.7 | 22.5 | 0.00 | 0.00 | 0.00 | 49 | 1011.0 |
| 20260505162730 | 15 | 355 | 9.7 | 30.6 | 0.00 | 0.00 | 0.00 | 49 | 1010.9 |
| 20260505162617 | 14 | 0 | 11.3 | 30.6 | 0.00 | 0.00 | 0.00 | 50 | 1011.1 |
| 20260505161731 | 14 | 0 | 6.4 | 24.1 | 0.00 | 0.00 | 0.00 | 50 | 1011.0 |
| 20260505161230 | 13 | 16 | 14.5 | 24.1 | 0.00 | 0.00 | 0.00 | 52 | 1011.0 |
| 20260505161124 | 13 | 10 | 11.3 | 27.4 | 0.00 | 0.00 | 0.00 | 53 | 1010.8 |
| 20260505160612 | 13 | 348 | 12.9 | 27.4 | 0.00 | 0.00 | 0.00 | 52 | 1010.7 |
| 20260505153228 | 14 | 13 | 11.3 | 27.4 | 0.00 | 0.00 | 0.00 | 50 | 1010.5 |
| 20260505152729 | 14 | 351 | 16.1 | 27.4 | 0.00 | 0.00 | 0.00 | 50 | 1010.5 |
| 20260505152230 | 13 | 13 | 9.7 | 22.5 | 0.00 | 0.00 | 0.00 | 51 | 1010.4 |
| 20260505151729 | 13 | 0 | 8.0 | 20.9 | 0.00 | 0.00 | 0.00 | 51 | 1010.3 |
| 20260505151229 | 13 | 0 | 9.7 | 22.5 | 0.00 | 0.00 | 0.00 | 52 | 1010.1 |
| 20260505150729 | 13 | 10 | 12.9 | 22.5 | 0.00 | 0.00 | 0.00 | 51 | 1010.0 |
| 20260505150232 | 13 | 21 | 9.7 | 19.3 | 0.00 | 0.00 | 0.00 | 51 | 1009.9 |
| 20260505140229 | 12 | 3 | 14.5 | 27.4 | 0.00 | 0.00 | 0.00 | 52 | 1009.9 |
| 20260505130230 | 11 | 326 | 16.1 | 32.2 | 0.00 | 0.00 | 0.00 | 54 | 1008.0 |
| 20260505124730 | 11 | 0 | 16.1 | 30.6 | 0.00 | 0.00 | 0.00 | 54 | 1008.1 |
| 20260505124229 | 11 | 7 | 11.3 | 27.4 | 0.00 | 0.00 | 0.00 | 55 | 1007.8 |
| 20260505123730 | 11 | 3 | 14.5 | 27.4 | 0.00 | 0.00 | 0.00 | 54 | 1007.8 |
| 20260505123230 | 11 | 326 | 9.7 | 32.2 | 0.00 | 0.00 | 0.00 | 54 | 1007.8 |
| 20260505122730 | 12 | 0 | 11.3 | 32.2 | 0.00 | 0.00 | 0.00 | 54 | 1007.6 |
| 20260505122618 | 12 | 354 | 16.1 | 24.1 | 0.00 | 0.00 | 0.00 | 54 | 1007.6 |
| 20260505121730 | 12 | 17 | 14.5 | 22.5 | 0.00 | 0.00 | 0.00 | 55 | 1007.6 |
| 20260505121230 | 12 | 347 | 8.0 | 25.7 | 0.00 | 0.00 | 0.00 | 55 | 1007.5 |
| 20260505121020 | 12 | 1 | 14.5 | 30.6 | 0.00 | 0.00 | 0.00 | 55 | 1007.4 |
| 20260505120903 | 12 | 6 | 12.9 | 30.6 | 0.00 | 0.00 | 0.00 | 55 | 1007.4 |
| 20260505115729 | 12 | 333 | 11.3 | 27.4 | 0.00 | 0.00 | 0.00 | 55 | 1007.4 |
| 20260505115229 | 12 | 336 | 9.7 | 27.4 | 0.00 | 0.00 | 0.00 | 55 | 1007.0 |
| 20260505115111 | 12 | 7 | 12.9 | 27.4 | 0.00 | 0.00 | 0.00 | 55 | 1007.0 |
| 20260505114619 | 12 | 0 | 11.3 | 27.4 | 0.00 | 0.00 | 0.00 | 55 | 1006.8 |
| 20260505113729 | 12 | 351 | 14.5 | 24.1 | 0.00 | 0.00 | 0.00 | 56 | 1007.0 |
| 20260505113622 | 12 | 0 | 14.5 | 24.1 | 0.00 | 0.00 | 0.00 | 56 | 1007.0 |
| 20260505112729 | 12 | 0 | 14.5 | 25.7 | 0.00 | 0.00 | 0.00 | 56 | 1007.0 |
| 20260505112617 | 12 | 0 | 11.3 | 25.7 | 0.00 | 0.00 | 0.00 | 56 | 1006.9 |
| 20260505111730 | 13 | 357 | 12.9 | 24.1 | 0.00 | 0.00 | 0.00 | 56 | 1006.7 |
| 20260505111230 | 13 | 0 | 14.5 | 27.4 | 0.00 | 0.00 | 0.00 | 57 | 1006.7 |
| 20260505110730 | 13 | 7 | 12.9 | 30.6 | 0.00 | 0.00 | 0.00 | 57 | 1006.8 |
| 20260505110229 | 13 | 348 | 12.9 | 33.8 | 0.00 | 0.00 | 0.00 | 57 | 1006.8 |
| 20260505102111 | 15 | 338 | 14.5 | 35.4 | 0.00 | 0.00 | 0.00 | 55 | 1006.4 |
| 20260505101230 | 15 | 350 | 14.5 | 35.4 | 0.00 | 0.00 | 0.00 | 54 | 1006.5 |
| 20260505100730 | 15 | 299 | 14.5 | 32.2 | 0.00 | 0.00 | 0.00 | 52 | 1006.2 |
| 20260505100230 | 15 | 13 | 17.7 | 33.8 | 0.00 | 0.00 | 0.00 | 51 | 1006.1 |
| 20260505095731 | 16 | 334 | 11.3 | 33.8 | 0.00 | 0.00 | 0.00 | 49 | 1005.9 |
| 20260505095230 | 16 | 347 | 17.7 | 33.8 | 0.00 | 0.00 | 0.00 | 46 | 1005.6 |
| 20260505094731 | 17 | 343 | 16.1 | 32.2 | 0.00 | 0.00 | 0.00 | 40 | 1005.6 |
| 20260505094231 | 17 | 336 | 17.7 | 32.2 | 0.00 | 0.00 | 0.00 | 32 | 1005.4 |
| 20260505093730 | 18 | 336 | 16.1 | 32.2 | 0.00 | 0.00 | 0.00 | 31 | 1005.2 |
| 20260505093229 | 18 | 357 | 9.7 | 27.4 | 0.00 | 0.00 | 0.00 | 28 | 1005.1 |
| 20260505092728 | 19 | 336 | 12.9 | 29.0 | 0.00 | 0.00 | 0.00 | 27 | 1004.8 |
| 20260505092229 | 20 | 358 | 16.1 | 29.0 | 0.00 | 0.00 | 0.00 | 26 | 1004.7 |
| 20260505092018 | 20 | 309 | 6.4 | 22.5 | 0.00 | 0.00 | 0.00 | 27 | 1004.7 |
| 20260505091901 | 20 | 302 | 12.9 | 25.7 | 0.00 | 0.00 | 0.00 | 26 | 1004.8 |
| 20260505090729 | 20 | 292 | 8.0 | 27.4 | 0.00 | 0.00 | 0.00 | 27 | 1004.3 |
| 20260505090229 | 20 | 0 | 6.4 | 32.2 | 0.00 | 0.00 | 0.00 | 27 | 1004.3 |
| 20260505085729 | 20 | 331 | 8.0 | 32.2 | 0.00 | 0.00 | 0.00 | 27 | 1004.5 |
| 20260505085230 | 20 | 286 | 6.4 | 19.3 | 0.00 | 0.00 | 0.00 | 28 | 1004.1 |
| 20260505084729 | 20 | 278 | 11.3 | 20.9 | 0.00 | 0.00 | 0.00 | 28 | 1003.9 |
| 20260505084619 | 20 | 217 | 8.0 | 20.9 | 0.00 | 0.00 | 0.00 | 27 | 1003.8 |
| 20260505083730 | 20 | 258 | 8.0 | 24.1 | 0.00 | 0.00 | 0.00 | 27 | 1003.7 |
| 20260505083229 | 20 | 265 | 8.0 | 24.1 | 0.00 | 0.00 | 0.00 | 27 | 1003.6 |
| 20260505082730 | 21 | 266 | 11.3 | 25.7 | 0.00 | 0.00 | 0.00 | 27 | 1003.6 |
| 20260505082229 | 21 | 279 | 11.3 | 25.7 | 0.00 | 0.00 | 0.00 | 26 | 1003.5 |
| 20260505081731 | 21 | 285 | 12.9 | 24.1 | 0.00 | 0.00 | 0.00 | 27 | 1003.3 |
| 20260505081229 | 21 | 254 | 9.7 | 24.1 | 0.00 | 0.00 | 0.00 | 27 | 1003.6 |
| 20260505080729 | 21 | 255 | 11.3 | 24.1 | 0.00 | 0.00 | 0.00 | 27 | 1003.6 |
| 20260505080229 | 20 | 307 | 9.7 | 17.7 | 0.00 | 0.00 | 0.00 | 27 | 1003.8 |
| 20260505075728 | 20 | 248 | 8.0 | 16.1 | 0.00 | 0.00 | 0.00 | 27 | 1003.9 |
| 20260505075229 | 20 | 252 | 9.7 | 22.5 | 0.00 | 0.00 | 0.00 | 27 | 1004.0 |
| 20260505074731 | 21 | 240 | 9.7 | 22.5 | 0.00 | 0.00 | 0.00 | 27 | 1004.0 |
| 20260505074228 | 21 | 268 | 11.3 | 20.9 | 0.00 | 0.00 | 0.00 | 27 | 1004.1 |
| 20260505073729 | 21 | 228 | 9.7 | 20.9 | 0.00 | 0.00 | 0.00 | 27 | 1004.0 |
| 20260505073229 | 21 | 310 | 8.0 | 20.9 | 0.00 | 0.00 | 0.00 | 27 | 1004.0 |
| 20260505072729 | 21 | 276 | 8.0 | 20.9 | 0.00 | 0.00 | 0.00 | 27 | 1004.1 |
| 20260505072620 | 21 | 265 | 6.4 | 20.9 | 0.00 | 0.00 | 0.00 | 26 | 1004.1 |
| 20260505071728 | 21 | 228 | 9.7 | 20.9 | 0.00 | 0.00 | 0.00 | 26 | 1004.0 |
| 20260505071230 | 21 | 276 | 8.0 | 24.1 | 0.00 | 0.00 | 0.00 | 26 | 1004.0 |
| 20260505070731 | 21 | 262 | 9.7 | 24.1 | 0.00 | 0.00 | 0.00 | 26 | 1003.9 |
| 20260505070230 | 21 | 259 | 6.4 | 19.3 | 0.00 | 0.00 | 0.00 | 26 | 1004.0 |
| 20260505065728 | 21 | 266 | 9.7 | 19.3 | 0.00 | 0.00 | 0.00 | 26 | 1004.0 |
| 20260505065230 | 21 | 268 | 9.7 | 24.1 | 0.00 | 0.00 | 0.00 | 26 | 1003.9 |
| 20260505064729 | 21 | 281 | 9.7 | 24.1 | 0.00 | 0.00 | 0.00 | 25 | 1003.8 |
| 20260505064230 | 21 | 241 | 9.7 | 25.7 | 0.00 | 0.00 | 0.00 | 25 | 1003.9 |
| 20260505063729 | 21 | 295 | 8.0 | 25.7 | 0.00 | 0.00 | 0.00 | 26 | 1003.9 |
| 20260505063229 | 21 | 226 | 12.9 | 27.4 | 0.00 | 0.00 | 0.00 | 25 | 1003.9 |
| 20260505062729 | 21 | 252 | 11.3 | 27.4 | 0.00 | 0.00 | 0.00 | 25 | 1004.0 |
| 20260505062228 | 21 | 231 | 9.7 | 29.0 | 0.00 | 0.00 | 0.00 | 25 | 1004.1 |
| 20260505061729 | 21 | 227 | 9.7 | 29.0 | 0.00 | 0.00 | 0.00 | 25 | 1004.1 |
| 20260505061516 | 21 | 204 | 11.3 | 27.4 | 0.00 | 0.00 | 0.00 | 26 | 1004.0 |
| 20260505061359 | 21 | 199 | 11.3 | 27.4 | 0.00 | 0.00 | 0.00 | 26 | 1003.9 |
| 20260505060615 | 21 | 259 | 8.0 | 24.1 | 0.00 | 0.00 | 0.00 | 25 | 1004.0 |
| 20260505055728 | 22 | 189 | 9.7 | 22.5 | 0.00 | 0.00 | 0.00 | 25 | 1004.0 |
| 20260505055231 | 22 | 233 | 12.9 | 22.5 | 0.00 | 0.00 | 0.00 | 25 | 1003.9 |
| 20260505054728 | 22 | 264 | 9.7 | 25.7 | 0.00 | 0.00 | 0.00 | 26 | 1003.9 |
| 20260505054229 | 22 | 259 | 12.9 | 27.4 | 0.00 | 0.00 | 0.00 | 25 | 1004.1 |
| 20260505053728 | 22 | 250 | 11.3 | 29.0 | 0.00 | 0.00 | 0.00 | 25 | 1004.1 |
| 20260505053228 | 22 | 235 | 12.9 | 29.0 | 0.00 | 0.00 | 0.00 | 25 | 1004.1 |
| 20260505052730 | 22 | 276 | 12.9 | 29.0 | 0.00 | 0.00 | 0.00 | 25 | 1004.0 |
| 20260505052229 | 22 | 269 | 11.3 | 25.7 | 0.00 | 0.00 | 0.00 | 25 | 1004.0 |
| 20260505051728 | 22 | 243 | 11.3 | 27.4 | 0.00 | 0.00 | 0.00 | 25 | 1004.0 |
| 20260505051229 | 22 | 240 | 16.1 | 27.4 | 0.00 | 0.00 | 0.00 | 25 | 1004.1 |
| 20260505050729 | 22 | 238 | 11.3 | 30.6 | 0.00 | 0.00 | 0.00 | 25 | 1004.1 |
| 20260505050228 | 22 | 247 | 14.5 | 30.6 | 0.00 | 0.00 | 0.00 | 25 | 1004.1 |
| 20260505050112 | 22 | 234 | 9.7 | 25.7 | 0.00 | 0.00 | 0.00 | 25 | 1004.1 |
| 20260505040729 | 23 | 223 | 9.7 | 22.5 | 0.00 | 0.00 | 0.00 | 24 | 1004.2 |
| 20260505040619 | 23 | 169 | 14.5 | 29.0 | 0.00 | 0.00 | 0.00 | 24 | 1004.2 |
| 20260505035730 | 23 | 200 | 11.3 | 29.0 | 0.00 | 0.00 | 0.00 | 24 | 1004.2 |
| 20260505035228 | 23 | 244 | 12.9 | 29.0 | 0.00 | 0.00 | 0.00 | 24 | 1004.2 |
| 20260505034728 | 23 | 257 | 12.9 | 29.0 | 0.00 | 0.00 | 0.00 | 23 | 1004.2 |
| 20260505034230 | 23 | 206 | 12.9 | 27.4 | 0.00 | 0.00 | 0.00 | 23 | 1004.2 |
| 20260505033729 | 23 | 224 | 12.9 | 29.0 | 0.00 | 0.00 | 0.00 | 23 | 1004.2 |
| 20260505033230 | 23 | 234 | 9.7 | 32.2 | 0.00 | 0.00 | 0.00 | 23 | 1004.1 |
| 20260505033115 | 23 | 252 | 17.7 | 33.8 | 0.00 | 0.00 | 0.00 | 22 | 1004.1 |
| 20260505032228 | 23 | 227 | 16.1 | 33.8 | 0.00 | 0.00 | 0.00 | 22 | 1004.0 |
| 20260505032117 | 23 | 221 | 16.1 | 35.4 | 0.00 | 0.00 | 0.00 | 20 | 1004.0 |
| 20260505031229 | 24 | 203 | 11.3 | 35.4 | 0.00 | 0.00 | 0.00 | 19 | 1003.9 |
| 20260505030729 | 24 | 228 | 9.7 | 27.4 | 0.00 | 0.00 | 0.00 | 18 | 1003.9 |
| 20260505030228 | 24 | 233 | 9.7 | 30.6 | 0.00 | 0.00 | 0.00 | 18 | 1003.8 |
| 20260505025728 | 24 | 224 | 8.0 | 30.6 | 0.00 | 0.00 | 0.00 | 18 | 1003.8 |
| 20260505025228 | 24 | 200 | 8.0 | 22.5 | 0.00 | 0.00 | 0.00 | 17 | 1003.8 |
| 20260505024729 | 25 | 272 | 9.7 | 25.7 | 0.00 | 0.00 | 0.00 | 17 | 1003.9 |
| 20260505024616 | 25 | 245 | 8.0 | 25.7 | 0.00 | 0.00 | 0.00 | 17 | 1003.7 |
| 20260505024117 | 25 | 231 | 11.3 | 22.5 | 0.00 | 0.00 | 0.00 | 17 | 1003.7 |
| 20260505023228 | 25 | 299 | 9.7 | 24.1 | 0.00 | 0.00 | 0.00 | 17 | 1003.7 |
| 20260505022731 | 25 | 235 | 9.7 | 24.1 | 0.00 | 0.00 | 0.00 | 16 | 1003.7 |
| 20260505022228 | 25 | 233 | 9.7 | 24.1 | 0.00 | 0.00 | 0.00 | 16 | 1003.7 |
| 20260505021728 | 25 | 213 | 12.9 | 27.4 | 0.00 | 0.00 | 0.00 | 16 | 1003.6 |
| 20260505021228 | 25 | 234 | 9.7 | 27.4 | 0.00 | 0.00 | 0.00 | 16 | 1003.6 |
| 20260505020728 | 25 | 217 | 9.7 | 25.7 | 0.00 | 0.00 | 0.00 | 16 | 1003.6 |
| 20260505020228 | 25 | 244 | 14.5 | 25.7 | 0.00 | 0.00 | 0.00 | 16 | 1003.5 |
| 20260505015730 | 25 | 231 | 14.5 | 20.9 | 0.00 | 0.00 | 0.00 | 16 | 1003.6 |
| 20260505015228 | 25 | 274 | 12.9 | 24.1 | 0.00 | 0.00 | 0.00 | 16 | 1003.7 |
| 20260505014728 | 25 | 210 | 11.3 | 24.1 | 0.00 | 0.00 | 0.00 | 16 | 1003.5 |
| 20260505014228 | 26 | 240 | 12.9 | 22.5 | 0.00 | 0.00 | 0.00 | 16 | 1003.5 |
| 20260505013729 | 26 | 221 | 9.7 | 33.8 | 0.00 | 0.00 | 0.00 | 16 | 1003.5 |
| 20260505013229 | 26 | 217 | 12.9 | 33.8 | 0.00 | 0.00 | 0.00 | 15 | 1003.3 |
| 20260505012728 | 26 | 231 | 16.1 | 27.4 | 0.00 | 0.00 | 0.00 | 15 | 1003.2 |
| 20260505012230 | 26 | 206 | 11.3 | 29.0 | 0.00 | 0.00 | 0.00 | 15 | 1003.5 |
| 20260505011728 | 26 | 235 | 17.7 | 29.0 | 0.00 | 0.00 | 0.00 | 15 | 1003.5 |
| 20260505011227 | 26 | 244 | 16.1 | 29.0 | 0.00 | 0.00 | 0.00 | 15 | 1003.3 |
| 20260505010729 | 26 | 276 | 12.9 | 29.0 | 0.00 | 0.00 | 0.00 | 15 | 1003.3 |
| 20260505010228 | 27 | 261 | 12.9 | 29.0 | 0.00 | 0.00 | 0.00 | 15 | 1003.2 |
| 20260505005728 | 27 | 221 | 16.1 | 29.0 | 0.00 | 0.00 | 0.00 | 15 | 1003.3 |
| 20260505005229 | 27 | 220 | 11.3 | 29.0 | 0.00 | 0.00 | 0.00 | 15 | 1003.3 |
| 20260505004729 | 27 | 261 | 9.7 | 33.8 | 0.00 | 0.00 | 0.00 | 15 | 1003.3 |
| 20260505004229 | 27 | 243 | 12.9 | 33.8 | 0.00 | 0.00 | 0.00 | 14 | 1003.5 |
| 20260505003729 | 27 | 190 | 16.1 | 33.8 | 0.00 | 0.00 | 0.00 | 14 | 1003.5 |
| 20260505003229 | 27 | 268 | 12.9 | 30.6 | 0.00 | 0.00 | 0.00 | 15 | 1003.6 |
| 20260505002728 | 27 | 285 | 8.0 | 27.4 | 0.00 | 0.00 | 0.00 | 14 | 1003.5 |
| 20260505002229 | 27 | 259 | 12.9 | 27.4 | 0.00 | 0.00 | 0.00 | 15 | 1003.5 |
| 20260505002009 | 28 | 241 | 14.5 | 37.0 | 0.00 | 0.00 | 0.00 | 14 | 1003.6 |
| 20260505001857 | 28 | 243 | 9.7 | 35.4 | 0.00 | 0.00 | 0.00 | 14 | 1003.6 |
| 20260505000728 | 28 | 216 | 9.7 | 37.0 | 0.00 | 0.00 | 0.00 | 14 | 1003.5 |
| 20260505000228 | 28 | 257 | 14.5 | 30.6 | 0.00 | 0.00 | 0.00 | 15 | 1003.7 |
| 20260504235728 | 28 | 264 | 12.9 | 33.8 | 0.00 | 0.00 | 0.00 | 15 | 1003.6 |
| 20260504235301 | 28 | 305 | 8.0 | 20.9 | 0.00 | 0.00 | 0.00 | 22 | 1003.7 |
| 20260504235252 | 28 | 226 | 6.4 | 17.7 | 0.00 | 0.00 | 0.00 | 22 | 1003.8 |
| 20260504235241 | 28 | 200 | 8.0 | 19.3 | 0.00 | 0.00 | 0.00 | 23 | 1003.7 |
| 20260504235233 | 28 | 221 | 12.9 | 33.8 | 0.00 | 0.00 | 0.00 | 18 | 1003.8 |
| 20260504233230 | 28 | 219 | 9.7 | 20.9 | 0.00 | 0.00 | 0.00 | 22 | 1003.8 |
| 20260504232727 | 28 | 164 | 8.0 | 20.9 | 0.00 | 0.00 | 0.00 | 23 | 1003.7 |
| 20260504232229 | 28 | 250 | 9.7 | 22.5 | 0.00 | 0.00 | 0.00 | 23 | 1003.8 |
| 20260504231729 | 28 | 237 | 11.3 | 24.1 | 0.00 | 0.00 | 0.00 | 22 | 1003.8 |
| 20260504231228 | 28 | 226 | 12.9 | 24.1 | 0.00 | 0.00 | 0.00 | 23 | 1003.8 |
| 20260504230730 | 28 | 231 | 8.0 | 30.6 | 0.00 | 0.00 | 0.00 | 22 | 1003.9 |
| 20260504230230 | 28 | 247 | 14.5 | 30.6 | 0.00 | 0.00 | 0.00 | 22 | 1003.8 |
| 20260504225728 | 28 | 178 | 11.3 | 22.5 | 0.00 | 0.00 | 0.00 | 21 | 1003.9 |
| 20260504225625 | 28 | 240 | 9.7 | 25.7 | 0.00 | 0.00 | 0.00 | 21 | 1003.9 |
| 20260504224727 | 28 | 307 | 11.3 | 25.7 | 0.00 | 0.00 | 0.00 | 22 | 1003.9 |
| 20260504224229 | 29 | 196 | 11.3 | 24.1 | 0.00 | 0.00 | 0.00 | 21 | 1004.0 |
| 20260504223729 | 29 | 227 | 11.3 | 22.5 | 0.00 | 0.00 | 0.00 | 20 | 1004.1 |
| 20260504223228 | 29 | 241 | 9.7 | 24.1 | 0.00 | 0.00 | 0.00 | 19 | 1004.2 |
| 20260504223114 | 30 | 230 | 12.9 | 24.1 | 0.00 | 0.00 | 0.00 | 19 | 1004.1 |
| 20260504222230 | 30 | 259 | 8.0 | 29.0 | 0.00 | 0.00 | 0.00 | 17 | 1004.2 |
| 20260504222122 | 30 | 238 | 11.3 | 29.0 | 0.00 | 0.00 | 0.00 | 19 | 1004.2 |
| 20260504221230 | 29 | 269 | 12.9 | 22.5 | 0.00 | 0.00 | 0.00 | 20 | 1004.3 |
| 20260504220729 | 29 | 248 | 9.7 | 22.5 | 0.00 | 0.00 | 0.00 | 20 | 1004.3 |
| 20260504220618 | 29 | 213 | 11.3 | 29.0 | 0.00 | 0.00 | 0.00 | 19 | 1004.3 |
| 20260504215729 | 29 | 203 | 12.9 | 29.0 | 0.00 | 0.00 | 0.00 | 19 | 1004.5 |
| 20260504215228 | 30 | 227 | 8.0 | 35.4 | 0.00 | 0.00 | 0.00 | 20 | 1004.5 |
| 20260504214728 | 30 | 202 | 14.5 | 35.4 | 0.00 | 0.00 | 0.00 | 19 | 1004.7 |
| 20260504214230 | 30 | 235 | 9.7 | 33.8 | 0.00 | 0.00 | 0.00 | 20 | 1004.7 |
| 20260504213728 | 29 | 285 | 16.1 | 33.8 | 0.00 | 0.00 | 0.00 | 19 | 1004.9 |
| 20260504213228 | 29 | 248 | 8.0 | 24.1 | 0.00 | 0.00 | 0.00 | 20 | 1004.8 |
| 20260504212728 | 30 | 214 | 16.1 | 24.1 | 0.00 | 0.00 | 0.00 | 19 | 1004.8 |
| 20260504212229 | 30 | 259 | 12.9 | 24.1 | 0.00 | 0.00 | 0.00 | 20 | 1005.0 |
| 20260504211729 | 30 | 252 | 8.0 | 29.0 | 0.00 | 0.00 | 0.00 | 21 | 1005.1 |
| 20260504211229 | 30 | 266 | 12.9 | 33.8 | 0.00 | 0.00 | 0.00 | 20 | 1005.2 |
| 20260504210728 | 30 | 262 | 12.9 | 33.8 | 0.00 | 0.00 | 0.00 | 20 | 1005.4 |
| 20260504210612 | 30 | 127 | 14.5 | 25.7 | 0.00 | 0.00 | 0.00 | 20 | 1005.4 |
| 20260504205728 | 30 | 244 | 14.5 | 30.6 | 0.00 | 0.00 | 0.00 | 20 | 1005.5 |
| 20260504205228 | 29 | 274 | 11.3 | 30.6 | 0.00 | 0.00 | 0.00 | 21 | 1005.5 |
| 20260504204729 | 29 | 278 | 14.5 | 30.6 | 0.00 | 0.00 | 0.00 | 20 | 1005.6 |
| 20260504204228 | 29 | 213 | 14.5 | 30.6 | 0.00 | 0.00 | 0.00 | 21 | 1005.8 |
| 20260504203730 | 28 | 269 | 8.0 | 27.4 | 0.00 | 0.00 | 0.00 | 22 | 1005.6 |
| 20260504203228 | 29 | 202 | 9.7 | 27.4 | 0.00 | 0.00 | 0.00 | 22 | 1005.7 |
| 20260504202729 | 28 | 237 | 8.0 | 25.7 | 0.00 | 0.00 | 0.00 | 23 | 1005.8 |
| 20260504202227 | 29 | 190 | 8.0 | 27.4 | 0.00 | 0.00 | 0.00 | 23 | 1005.8 |
| 20260504201728 | 29 | 262 | 11.3 | 29.0 | 0.00 | 0.00 | 0.00 | 24 | 1005.9 |
| 20260504201228 | 28 | 276 | 12.9 | 29.0 | 0.00 | 0.00 | 0.00 | 22 | 1006.0 |
| 20260504200728 | 29 | 240 | 8.0 | 25.7 | 0.00 | 0.00 | 0.00 | 23 | 1006.0 |
| 20260504200609 | 29 | 262 | 12.9 | 25.7 | 0.00 | 0.00 | 0.00 | 21 | 1006.0 |
| 20260504195729 | 29 | 272 | 9.7 | 24.1 | 0.00 | 0.00 | 0.00 | 25 | 1006.1 |
| 20260504195230 | 29 | 250 | 4.8 | 24.1 | 0.00 | 0.00 | 0.00 | 24 | 1006.4 |
| 20260504194729 | 28 | 275 | 14.5 | 24.1 | 0.00 | 0.00 | 0.00 | 24 | 1006.5 |
| 20260504194228 | 28 | 188 | 9.7 | 27.4 | 0.00 | 0.00 | 0.00 | 25 | 1006.4 |
| 20260504193728 | 28 | 274 | 14.5 | 27.4 | 0.00 | 0.00 | 0.00 | 24 | 1006.6 |
| 20260504193229 | 28 | 292 | 14.5 | 27.4 | 0.00 | 0.00 | 0.00 | 23 | 1006.6 |
| 20260504192730 | 28 | 262 | 16.1 | 27.4 | 0.00 | 0.00 | 0.00 | 22 | 1006.8 |
| 20260504192228 | 28 | 265 | 3.2 | 25.7 | 0.00 | 0.00 | 0.00 | 24 | 1006.7 |
| 20260504191728 | 28 | 268 | 11.3 | 25.7 | 0.00 | 0.00 | 0.00 | 22 | 1006.8 |
| 20260504191229 | 28 | 279 | 16.1 | 27.4 | 0.00 | 0.00 | 0.00 | 23 | 1006.9 |
| 20260504190728 | 28 | 243 | 11.3 | 27.4 | 0.00 | 0.00 | 0.00 | 23 | 1006.8 |
| 20260504190230 | 28 | 296 | 6.4 | 25.7 | 0.00 | 0.00 | 0.00 | 22 | 1006.9 |
| 20260504185727 | 28 | 219 | 12.9 | 25.7 | 0.00 | 0.00 | 0.00 | 23 | 1007.0 |
| 20260504185229 | 28 | 262 | 9.7 | 25.7 | 0.00 | 0.00 | 0.00 | 24 | 1006.9 |
| 20260504184729 | 28 | 228 | 12.9 | 24.1 | 0.00 | 0.00 | 0.00 | 25 | 1007.1 |
| 20260504184230 | 28 | 228 | 11.3 | 25.7 | 0.00 | 0.00 | 0.00 | 24 | 1007.2 |